Regional Weather Roundup
Issued by NWS

Home | Current Version | Previous Version | Text Only | Print | Product List | Glossary Off
Versions: 1 2 3 4 5 6 7 8 9 10 11 12 13 14 15 16 17 18 19 20 21 22 23 24 25 26 27 28 29 30 31 32 33 34 35 36 37 38 39 40 41 42 43 44 45 46 47 48 49 50

000
ASUS43 KLOT 271206
RWRIL

ILLINOIS REGIONAL WEATHER ROUNDUP
NATIONAL WEATHER SERVICE CHICAGO/ROMEOVILLE IL
700 AM CDT WED AUG 27 2014

NOTE: "FAIR" INDICATES FEW OR NO CLOUDS BELOW 12,000 FEET WITH NO
SIGNIFICANT WEATHER AND/OR OBSTRUCTIONS TO VISIBILITY.

* THESE STATIONS ARE NOT UNDER NWS QUALITY CONTROL. THEY ALSO MAY NOT
  REPORT WEATHER SUCH AS PRECIPITATION OR FOG.

ILZ001-002-007-009-015-016-024-271300-
NORTHWEST ILLINOIS

CITY           SKY/WX    TMP DP  RH WIND       PRES   REMARKS
MOLINE         MOCLDY    69  61  75 NE7       30.13R
6HR MIN TEMP:  68; 6HR MAX TEMP:  72;

STERLING*      PTCLDY    66  61  82 E7        30.15S
SAVANNA*       MOCLDY    65  60  81 NE3       30.15S
$$

ILZ003-004-008-010-011-017-018-271300-
NORTH CENTRAL ILLINOIS

CITY           SKY/WX    TMP DP  RH WIND       PRES   REMARKS
ROCKFORD       PTCLDY    64  58  80 NE7       30.16F
6HR MIN TEMP:  63; 6HR MAX TEMP:  69;

FREEPORT*      PTCLDY    60  58  94 NE5       30.17F
ROCHELLE*      PTCLDY    64  59  86 NE6       30.15F
DE KALB*       PTCLDY    62  59  91 N5        30.16F
PERU*          MOCLDY    68  63  83 NE7       30.14R
$$

ILZ005-006-012>014-019>023-271300-
NORTHEAST ILLINOIS

CITY           SKY/WX    TMP DP  RH WIND       PRES   REMARKS
CHICAGO-OHARE  MOCLDY    68  61  78 N6        30.14R
6HR MIN TEMP:  68; 6HR MAX TEMP:  72;

CHICAGO-MIDWAY MOCLDY    72  64  76 NE6       30.13R
6HR MIN TEMP:  71; 6HR MAX TEMP:  74;

AURORA         PTCLDY    65  61  87 N7        30.14R
6HR MIN TEMP:  65; 6HR MAX TEMP:  69;

LANSING*       PTCLDY    67  63  86 E5        30.13S
JOLIET*        PTCLDY    68  64  88 N5        30.14R
WAUKEGAN       PTCLDY    63  60  90 N5        30.14R
6HR MIN TEMP:  63; 6HR MAX TEMP:  65;

DUPAGE AIRPORT PTCLDY    65  62  90 N5        30.14R
6HR MIN TEMP:  65; 6HR MAX TEMP:  69;

KANKAKEE*      CLOUDY    69  65  88 NE5       30.13R
WHEELING       MOCLDY    68  63  84 N6        30.16R
6HR MIN TEMP:  66; 6HR MAX TEMP:  70;

MORRIS*        PTCLDY    68  68 100 CALM      30.13R
ROMEOVILLE*    PTCLDY    67  65  94 N6        30.14R
NORTHERLY ISL    N/A     70  62  76 NE6         N/A
$$

LMZ740>746-271300-
SOUTHERN LAKE MICHIGAN

STATION/POSITION SKY/WX   TEMP    WIND        PRES    VSBY  WAVE
                          AIR SEA DIR/SP/G                  HT/PER
                          (F)     (DEG/KT/KT) (MB)    (MI)  (FT/S)
SOUTHERN BUOY              68 69   50/  2/  2 1020.8R         0
WAUKEGAN HARBOR            66     340/  6/  9   N/A
HARRISON CRIB              70      30/  5/  6   N/A
BURNHAM HARBOR             71      40/  6       N/A
CALUMET HARBOR             70      30/  3/  4 1019.0S
MICHIGAN CITY              67      60/  4/  6   N/A
MICHIGAN CITY 6N           71 73   70/  6/  8   N/A           1/ 3
ST. JOSEPH                 69 74   40/  6/  8   N/A           1
$$

ILZ025>027-034>036-040-047-049-050-058-095>099-271300-
WEST-CENTRAL ILLINOIS

CITY           SKY/WX    TMP DP  RH WIND       PRES   REMARKS
QUINCY         PTCLDY    70  68  93 NE8       30.10R
GALESBURG*     CLEAR     68  66  92 NE5       30.12R
MACOMB*        CLOUDY    69  67  93 NE5       30.13R
JACKSONVILLE*  CLEAR     71  69  95 E3        30.10S
PITTSFIELD*    CLEAR     73  70  91 CALM      30.10S
$$

ILZ028>032-037-038-041>044-048-051>054-059>061-271300-
CENTRAL ILLINOIS

CITY           SKY/WX    TMP DP  RH WIND       PRES   REMARKS
PONTIAC        CLOUDY    72  70  94 NE5       30.12R
DECATUR        CLEAR     69  66  90 CALM      30.10R
PEORIA         PTCLDY    73  65  75 NE8       30.11R
6HR MIN TEMP:  73; 6HR MAX TEMP:  77;

LACON*         PTCLDY    69  65  89 CALM      30.11S
LINCOLN*       CLEAR     70  68  95 CALM      30.07S FOG
SPRINGFIELD    CLEAR     71  67  87 CALM      30.10R
6HR MIN TEMP:  69; 6HR MAX TEMP:  73;

TAYLORVILLE    PTCLDY    68  64  88 CALM      30.10S
$$

ILZ033-039-045-046-055>057-062-063-271300-
EAST-CENTRAL ILLINOIS

CITY           SKY/WX    TMP DP  RH WIND       PRES   REMARKS
CHAMPAIGN      PTCLDY    68  66  93 CALM      30.11R
DANVILLE*      RAIN      68  67  98 NE7       30.08S
RANTOUL*       FOG       72  69  91 CALM      30.12R VSB 1/4
MATTOON        PTCLDY    70  67  90 S3        30.09S
PARIS*         PTCLDY    68  68 100 CALM      30.11S FOG
$$

ILZ079-100>102-271300-
SOUTHWEST ILLINOIS

CITY           SKY/WX    TMP DP  RH WIND       PRES   REMARKS
ALTON          CLEAR     72  70  94 CALM      30.09
BELLEVILLE     CLEAR     71  71  99 NE5       30.09R
SPARTA*        CLEAR     70  69  97 CALM      30.09S
$$

ILZ064>066-069>071-074>076-080>082-084>086-088>090-092>094-271300-
SOUTH-CENTRAL ILLINOIS

CITY           SKY/WX    TMP DP  RH WIND       PRES   REMARKS
CARBONDALE     CLEAR     71  70  96 CALM      30.09R FOG
6HR MIN TEMP:  70; 6HR MAX TEMP:  75;

CAIRO*         CLEAR     72  70  93 CALM      30.08R FOG
EFFINGHAM*     PTCLDY    70  66  88 CALM      30.11R
MARION         FOG       73  72  94 W3        30.10R VSB 1/4
MT. VERNON     CLEAR     72  66  83 CALM      30.10S
SALEM*         CLEAR     73  70  91 CALM      30.10S
METROPOLIS*      N/A     71  71  98 CALM      30.08S FOG
$$

ILZ067-068-072-073-078-083-087-091-271300-
SOUTHEAST ILLINOIS

CITY           SKY/WX    TMP DP  RH WIND       PRES   REMARKS
LAWRENCEVILLE  CLEAR     72  70  93 CALM      30.10R FOG
FLORA*         CLEAR     70  69  96 CALM      30.11R FOG
FAIRFIELD*     CLEAR     73  72  94 CALM      30.09S FOG
HARRISBURG*      N/A     72  72 100 CALM      30.10R FOG
ROBINSON*      PTCLDY    69  68  98 CALM      30.11R FOG
CARMI*         FOG       73  73 100 CALM      30.09S VSB<1/4
$$

ABBREVIATIONS USED IN REMARKS
   TC - TEMPERATURE IN CELSIUS
  WCI - WIND CHILL INDEX
   HX - HEAT INDEX
  VSB - VISIBILITY
$$




USA.gov is the U.S. government's official web portal to all federal, state and local government web resources and services.